MILESOVKA Weather Reports


time (UTC)temp
F
wind
direction
speed
knots
gust
knots
rain 1hr
in
rain 24hr
in
rain mn
in
humidity
%
barometer
mb
20260507071745 48 270 6.1 0.0 0.00 0.00 0.00 99
20260507061745 48 310 4.3 0.0 0.00 0.00 0.00 99
20260507051744 48 240 10.4 0.0 0.00 0.00 0.00 99
20260507041947 48 0 0.0 0.0 0.00 0.00 0.00 99
20260507031744 48 250 4.3 0.0 0.00 0.00 0.00 99
20260507021743 48 230 6.1 0.0 0.00 0.00 0.00 99
20260507011845 48 350 7.8 0.0 0.00 0.00 0.00 99
20260507001745 50 250 12.2 0.0 0.00 0.00 0.00 99
20260506231745 50 250 7.8 0.0 0.00 0.00 0.00 99
20260506221945 50 240 13.9 0.0 0.00 0.00 0.00 99
20260506211744 52 100 6.1 0.0 0.00 0.00 0.00 99
20260506201802 54 60 10.4 0.0 0.00 0.00 0.00 87
20260506191833 55 70 6.1 0.0 0.00 0.00 0.00 87
20260506181822 57 320 10.4 0.0 0.00 0.00 0.00 71
20260506171744 61 240 4.3 0.0 0.00 0.00 0.00 63
20260506161945 61 250 4.3 0.0 0.00 0.00 0.00 63
20260506151801 64 210 10.4 0.0 0.00 0.00 0.00 55
20260506141801 64 220 10.4 0.0 0.00 0.00 0.00 55
20260506131802 66 220 10.4 0.0 0.00 0.00 0.00 59
20260506121801 64 240 10.4 0.0 0.00 0.00 0.00 67
20260506111745 59 210 15.6 0.0 0.00 0.00 0.00 77
20260506101946 59 230 12.2 0.0 0.00 0.00 0.00 82
20260506091746 55 240 13.9 22.6 0.00 0.00 0.00 87
20260506081744 52 250 13.9 22.6 0.00 0.00 0.00 99